This is the latest recevied weather packets stored in our database for station/object WD7CGF. If no packets are shown the sender has not sent any weather packets the latest 10 day(s).
| Time | Temp. | Humidity | Pressure | Rain* | Wind** | Luminosity | Snow |
|---|---|---|---|---|---|---|---|
| 1787882330 | 20.56° C | 52% | 1013.6 hPa | 0 mm | - | - | - |
| 1787881725 | 20.56° C | 52% | 1013.6 hPa | 0 mm | - | - | - |
| 1787881117 | 20.56° C | 52% | 1013.6 hPa | 0 mm | - | - | - |
| 1787880531 | 21.11° C | 52% | 1013.2 hPa | 0 mm | - | - | - |
| 1787879923 | 21.11° C | 51% | 1013.2 hPa | 0 mm | - | - | - |
| 1787879321 | 21.11° C | 51% | 1013.2 hPa | 0 mm | - | - | - |
| 1787878716 | 21.67° C | 50% | 1013.9 hPa | 0 mm | - | - | - |
| 1787878129 | 21.67° C | 49% | 1013.9 hPa | 0 mm | - | - | - |
| 1787877522 | 21.67° C | 51% | 1013.9 hPa | 0 mm | - | - | - |
| 1787876916 | 22.22° C | 50% | 1013.9 hPa | 0 mm | - | - | - |
| 1787876330 | 22.22° C | 50% | 1013.9 hPa | 0 mm | - | - | - |
| 1787875723 | 22.22° C | 50% | 1013.7 hPa | 0 mm | - | - | - |
| 1787875122 | 22.78° C | 49% | 1013.6 hPa | 0 mm | - | - | - |
| 1787874515 | 22.78° C | 48% | 1013.6 hPa | 0 mm | - | - | - |
| 1787873929 | 22.78° C | 49% | 1013.6 hPa | 0 mm | - | - | - |
| 1787873322 | 22.78° C | 48% | 1013.7 hPa | 0 mm | - | - | - |
| 1787872715 | 23.33° C | 50% | 1013.7 hPa | 0 mm | - | - | - |
| 1787872129 | 23.33° C | 49% | 1013.3 hPa | 0 mm | - | - | - |
| 1787871524 | 23.33° C | 49% | 1013.2 hPa | 0 mm | - | - | - |
| 1787870916 | 23.89° C | 46% | 1013.2 hPa | 0 mm | - | - | - |
| 1787870313 | 24.44° C | 46% | 1012.9 hPa | 0 mm | - | - | - |
| 1787869726 | 25° C | 47% | 1012.8 hPa | 0 mm | - | - | - |
| 1787869117 | 25° C | 46% | 1012.8 hPa | 0 mm | - | - | - |
| 1787868511 | 25° C | 44% | 1012.7 hPa | 0 mm | - | - | - |
| 1787867925 | 25° C | 43% | 1012.7 hPa | 0 mm | - | - | - |
* Rain latest hour (hover to see other rain measurements)
** Current wind speed in m/s (hover to see current wind gust speed)